Theta_e
320 321 320 321 322 322 327 329 325 327 329 330 331 334 340 338 342 342 338 340 336 336 336 332 327 331 332 333 335 335 335 334 335 331 330 331 331 331 329 328 328 328 328 327 327 326 326 325 324
320 319 321 319 322 327 326 327 331 329 329 330 330 333 337 340 335 334 339 338 336 336 334 328 327 329 330 330 332 334 334 331 331 330 331 331 330 330 328 328 327 327 327 326 326 326 325 324 322
319 319 318 323 324 327 325 330 329 329 329 331 331 332 335 338 334 335 339 338 336 337 332 327 328 329 329 330 332 333 330 329 332 329 329 329 329 329 329 328 327 327 326 325 325 324 322 319 320
318 319 316 320 324 322 321 329 327 327 327 328 331 336 333 334 335 338 338 338 338 337 329 329 328 328 329 327 329 328 329 330 329 328 328 330 329 328 327 328 327 326 326 325 324 322 317 319 319
318 317 322 324 324 320 317 322 327 327 327 329 329 336 336 334 335 338 337 338 338 334 327 330 331 328 330 330 333 330 329 328 329 327 329 328 327 327 327 327 325 326 326 325 324 320 316 318 319
319 318 323 326 325 320 319 322 323 326 327 328 332 335 333 333 335 336 337 338 337 330 326 329 332 331 328 330 330 332 329 327 326 325 328 327 326 326 326 327 326 326 325 324 320 316 316 317 319
322 324 324 324 323 319 323 323 325 325 327 328 325 338 333 334 334 336 337 337 335 331 323 329 333 332 327 325 329 332 331 328 325 323 325 325 325 325 325 325 326 325 320 318 317 317 317 318 320
317 321 327 323 324 323 324 323 321 324 329 327 327 337 335 333 333 336 336 335 334 333 325 328 332 333 332 326 328 329 329 329 325 322 323 322 321 321 320 318 318 318 317 317 317 317 319 321 322
320 320 326 326 326 323 323 322 321 321 326 327 328 331 332 335 335 335 335 335 335 333 329 326 329 332 332 329 325 328 327 330 323 319 321 321 322 323 320 317 317 317 317 317 319 322 322 323 322
325 322 324 321 318 320 322 321 321 323 326 328 334 333 333 335 335 335 335 335 335 334 332 331 328 329 330 330 324 324 326 328 324 326 326 325 324 319 317 317 318 318 318 319 322 322 322 323 323
321 326 324 318 317 317 318 319 319 321 324 325 332 334 333 334 333 334 334 335 335 335 334 332 329 329 328 329 328 322 323 325 325 327 327 326 325 317 318 317 318 321 322 323 323 322 322 322 322
322 321 321 319 316 317 317 316 317 318 320 318 331 333 333 334 334 333 333 332 333 333 335 333 331 329 329 325 325 325 324 327 326 328 327 326 322 323 324 324 323 324 324 324 324 323 324 324 324
322 322 324 316 315 315 315 317 316 316 315 322 333 332 330 331 332 333 332 332 331 332 334 334 331 329 329 326 326 322 326 327 327 328 326 325 324 324 324 324 325 325 325 325 325 325 325 324 323
321 321 320 315 315 316 318 317 316 317 313 329 333 330 329 330 331 333 332 330 330 330 332 333 334 330 328 327 327 324 324 324 326 325 325 324 324 323 324 325 325 325 325 325 325 325 323 323 322
321 322 321 316 317 319 316 319 316 316 316 327 329 329 328 329 331 331 333 330 329 330 329 331 334 331 328 327 327 326 325 323 323 324 323 324 324 323 324 324 326 325 325 325 324 323 323 320 320
321 322 322 319 317 318 318 324 321 316 315 316 324 327 329 329 330 331 333 331 330 329 329 329 332 332 331 327 326 325 324 323 323 322 323 324 325 325 325 326 326 325 325 324 325 324 320 319 320
324 326 325 325 319 319 318 323 322 318 314 315 314 322 329 329 330 331 332 333 331 330 330 328 330 332 331 329 326 325 324 323 323 323 325 324 324 324 324 325 325 325 324 325 324 323 320 319 319
329 329 327 327 323 318 318 319 319 318 314 314 313 315 329 330 330 331 332 334 332 332 331 331 328 331 331 330 328 326 324 324 323 325 326 326 324 325 325 326 324 324 323 323 321 320 319 319 319
326 327 328 324 322 322 322 320 318 318 315 313 313 313 323 329 330 331 332 333 333 332 331 330 330 328 330 330 328 327 325 325 324 325 326 326 326 325 324 324 323 323 322 321 320 321 321 319 320
329 329 330 326 318 321 320 321 319 319 320 313 313 313 312 324 323 329 331 333 333 333 332 330 330 329 327 329 330 328 326 325 325 324 325 326 327 326 323 323 322 321 321 321 321 321 323 320 319
327 330 330 331 316 318 321 321 322 321 319 318 315 313 313 313 325 325 328 331 332 331 331 329 328 328 327 325 329 329 328 326 326 325 327 327 328 327 325 323 323 322 321 321 321 322 323 321 319
328 326 327 323 325 330 320 326 322 323 322 321 316 312 312 312 317 324 327 329 330 332 329 326 325 326 326 325 326 328 327 326 326 325 325 328 328 328 327 324 324 324 323 323 322 322 323 323 320
325 324 322 323 323 325 326 326 322 320 322 322 322 315 312 310 312 317 326 328 329 330 332 331 325 323 324 325 326 327 326 326 325 326 326 328 329 329 327 324 324 324 324 324 323 324 324 323 321
318 321 321 321 324 330 326 327 325 323 323 321 319 321 317 311 308 312 322 327 328 329 331 332 331 326 323 323 324 325 325 325 327 328 328 328 328 328 327 325 325 325 325 325 324 323 322 323 322
322 326 328 329 330 327 321 325 327 320 319 318 319 316 316 312 309 310 312 320 325 329 330 331 332 331 326 324 324 324 325 326 327 328 329 329 329 329 328 327 325 325 325 325 325 325 324 324 321
324 324 320 323 325 321 313 323 321 320 320 317 316 316 313 309 311 309 309 317 323 327 330 331 331 332 332 328 324 324 325 327 327 328 328 329 329 329 329 328 326 326 326 326 326 325 325 323 319
323 326 316 315 303 314 316 315 314 315 316 311 309 309 310 309 308 311 309 313 320 324 327 330 332 332 332 333 331 327 325 326 328 329 329 329 329 330 330 329 328 327 326 326 327 326 325 322 316
321 319 324 317 318 320 318 317 317 315 315 313 312 310 309 308 307 305 305 308 313 321 325 327 329 330 331 332 332 332 330 329 328 329 330 330 330 330 331 330 329 328 327 326 326 325 324 318 314
321 323 321 320 317 319 318 317 312 312 315 313 309 307 305 305 305 305 306 308 308 308 310 317 325 327 328 329 331 331 331 331 331 330 330 331 331 331 331 330 327 327 327 324 324 324 320 314 312
319 322 321 323 322 317 316 316 309 308 308 305 306 307 306 305 305 306 307 308 308 309 309 308 308 311 319 324 327 328 329 330 331 331 331 330 331 331 331 328 327 327 326 323 321 321 316 311 309
Wind_Speed
12 11 10 5 4 5 3 1 4 6 4 2 1 6 9 4 4 5 12 18 22 21 16 12 13 14 14 14 13 14 16 17 19 18 17 18 19 19 19 20 21 20 19 19 19 19 18 18 20
12 9 4 2 3 3 3 3 7 3 5 5 7 6 6 3 3 8 14 20 19 19 16 14 15 15 13 13 13 13 17 17 17 15 17 18 18 18 18 19 20 19 19 20 19 18 18 19 21
8 4 3 2 1 1 2 3 7 3 6 3 4 7 4 3 2 6 26 21 19 17 14 16 16 16 17 17 16 15 16 18 17 15 14 15 16 17 17 18 18 18 18 19 18 17 18 20 21
6 4 4 3 3 5 5 6 8 3 5 5 6 7 4 6 7 10 26 23 22 18 16 17 18 18 19 19 18 18 17 15 14 14 13 15 16 16 16 17 17 17 17 17 17 17 19 20 20
2 2 2 0 5 3 4 9 6 5 6 2 4 5 3 3 11 24 23 21 22 18 18 17 17 18 19 19 16 19 18 16 15 11 13 15 16 16 16 16 15 16 16 15 16 17 18 20 20
3 2 3 3 5 2 3 5 6 6 5 4 5 6 3 9 13 21 19 21 19 19 18 17 15 17 18 18 16 18 18 16 10 11 14 15 15 14 14 15 14 14 15 15 16 17 18 19 19
3 2 3 2 3 3 4 5 2 6 7 3 7 4 3 10 17 20 21 21 19 18 18 17 15 18 17 17 18 20 18 16 12 12 14 15 14 13 13 14 13 12 13 14 16 17 18 18 18
2 3 1 4 3 2 3 2 3 5 1 1 3 5 5 12 21 20 24 21 19 17 19 17 16 16 17 16 18 17 17 15 14 13 14 15 14 12 11 12 12 12 12 13 15 16 18 18 16
4 3 3 5 1 3 3 3 3 2 6 4 4 3 7 28 22 26 23 24 22 18 18 18 15 16 17 16 16 16 16 16 15 14 14 12 12 10 11 11 12 12 12 12 13 12 11 11 12
3 3 5 1 3 4 4 4 5 4 4 3 5 8 24 25 24 23 18 19 24 23 21 18 18 14 16 18 16 16 16 16 16 16 15 11 8 8 10 11 11 11 12 12 11 9 9 10 9
4 5 2 4 5 6 2 3 6 6 4 7 8 11 17 20 18 18 18 22 22 21 23 21 22 17 13 17 17 17 17 15 15 14 12 13 8 10 10 10 10 9 8 8 8 7 9 8 7
3 6 3 3 2 4 5 4 3 4 4 5 16 22 21 18 17 18 18 22 23 17 24 22 24 23 16 13 17 17 19 16 15 13 12 11 12 10 8 7 7 7 6 6 5 5 6 5 5
4 4 3 4 5 5 5 2 3 4 5 6 22 19 15 16 20 17 20 23 25 21 23 25 25 22 19 15 16 17 16 17 17 18 16 13 13 11 9 8 7 6 6 4 4 3 3 2 4
3 6 2 4 5 2 3 2 4 3 7 11 17 12 12 18 21 20 26 27 29 28 25 25 25 23 20 18 18 17 17 18 18 19 18 17 15 15 13 11 9 7 6 6 6 4 3 2 1
3 2 4 4 3 1 3 6 6 7 7 12 12 12 10 15 23 25 26 30 34 32 29 28 25 26 22 21 20 21 19 18 18 17 17 16 14 14 14 12 10 9 8 7 7 5 2 2 2
3 0 4 4 5 4 7 6 5 9 9 11 11 11 13 15 23 25 31 25 32 34 31 31 30 29 22 23 22 23 21 21 21 19 17 18 16 15 14 12 11 10 9 9 7 5 3 1 1
2 3 4 3 10 5 6 4 7 6 9 9 9 10 12 12 19 30 32 26 33 36 33 31 35 31 29 25 24 25 24 23 23 22 21 20 20 17 17 15 12 12 11 11 9 6 4 1 2
3 3 3 7 6 6 5 7 7 2 7 10 9 9 13 14 19 29 34 29 32 35 35 32 35 37 34 28 27 25 26 27 24 25 24 20 20 20 17 18 17 16 14 13 11 9 6 4 3
8 6 10 6 7 6 16 6 11 10 6 7 8 8 12 15 23 30 34 30 36 34 36 35 34 41 38 33 30 30 31 30 27 27 26 23 22 22 22 21 19 19 18 15 15 12 10 7 5
6 8 9 3 3 6 5 10 9 9 9 9 12 11 10 10 8 22 31 36 36 35 39 37 37 36 43 40 36 33 34 31 28 27 27 26 26 22 23 24 22 21 19 18 17 15 11 8 8
10 7 8 5 2 3 2 6 7 9 8 9 13 9 9 12 15 14 23 35 36 34 40 41 40 39 38 42 36 31 29 30 29 31 30 30 30 28 25 25 25 24 23 21 21 18 17 12 11
15 6 4 7 7 5 5 5 5 6 10 11 10 9 10 10 10 15 24 26 33 41 40 41 40 41 39 38 36 37 33 30 33 35 36 34 33 33 30 28 28 27 26 24 22 22 19 17 14
6 8 5 3 3 1 3 1 6 7 5 10 15 12 13 13 11 12 22 33 40 38 40 40 42 43 41 41 38 38 32 30 30 32 36 36 35 35 33 32 31 30 28 28 25 23 22 21 20
8 7 6 3 2 6 8 6 5 6 9 7 7 14 15 12 12 12 27 31 30 36 37 40 39 42 43 42 42 39 35 31 29 34 36 37 38 38 37 35 35 33 33 31 28 25 25 24 23
9 13 2 4 4 9 6 8 13 7 9 7 6 7 10 9 9 13 10 19 25 34 38 39 40 36 39 43 44 42 40 37 34 35 36 33 37 38 40 40 39 38 36 35 34 31 28 25 26
22 15 5 7 5 5 1 8 6 17 18 8 9 8 4 8 7 9 12 21 28 34 37 37 35 37 37 40 43 43 41 39 40 39 35 38 39 40 39 40 41 41 39 38 35 32 30 29 27
8 14 6 5 2 2 5 6 9 7 9 6 8 5 7 6 3 1 9 17 25 31 37 41 42 43 41 44 43 41 44 41 37 38 39 42 42 42 40 39 40 43 42 40 37 35 33 30 29
12 12 7 1 5 5 5 4 5 7 11 8 7 8 2 2 5 4 4 3 8 19 29 35 39 40 41 41 40 42 44 45 44 40 43 44 46 44 42 40 38 40 41 42 39 37 35 32 30
7 12 4 5 5 5 3 6 7 11 15 9 5 7 8 7 5 3 1 1 1 5 9 16 26 33 37 37 41 40 39 42 43 44 46 45 44 44 42 42 39 40 40 40 41 41 38 34 31
7 11 11 8 8 3 2 5 3 7 8 10 8 7 7 8 7 4 1 2 2 4 6 11 15 17 24 28 32 37 40 40 41 42 39 38 40 42 42 39 38 39 38 38 42 42 40 38 36
Wind_Direction
334 338 332 5 38 60 313 343 133 94 54 47 9 71 108 44 31 138 133 150 134 140 137 129 126 127 124 118 117 113 111 104 103 95 90 93 90 93 90 86 83 80 79 80 80 81 82 83 89
339 357 24 66 80 40 293 62 76 96 123 100 58 121 52 69 29 114 110 140 138 138 135 126 122 121 117 120 121 115 112 109 106 105 98 94 94 92 90 88 85 81 79 80 82 82 80 84 92
330 344 73 75 128 169 129 113 122 114 120 102 95 52 88 100 92 113 136 131 134 136 133 127 125 122 116 117 118 116 110 114 110 107 107 101 96 93 91 91 89 85 82 81 83 80 80 95 95
346 14 24 81 276 312 115 163 133 97 19 53 113 71 53 101 139 146 139 136 143 141 136 130 126 125 120 118 128 123 121 115 113 111 109 100 97 95 93 96 93 90 86 85 84 82 86 99 96
8 40 62 237 268 204 136 150 153 136 146 156 111 142 72 39 127 141 138 144 144 140 138 139 135 128 129 127 125 131 131 125 115 113 106 105 100 96 95 98 98 93 88 86 86 86 89 98 96
4 114 83 231 277 200 79 108 132 128 138 119 77 98 135 147 154 150 148 149 144 141 142 145 143 138 138 139 134 136 128 123 122 121 113 108 105 100 100 101 99 95 90 88 89 89 89 92 93
134 89 203 233 281 165 147 127 61 137 128 67 125 83 168 163 163 156 157 151 147 142 145 145 140 145 143 147 144 134 138 133 130 126 124 120 119 114 112 112 109 105 100 97 94 91 88 89 88
114 89 234 247 183 128 172 72 104 85 65 54 108 154 175 187 167 153 151 154 152 151 154 152 147 151 151 148 154 147 145 139 127 127 128 127 122 122 120 117 116 113 105 99 96 92 87 80 75
27 65 228 242 297 162 166 94 35 148 106 60 39 103 175 160 159 151 154 154 156 156 160 156 160 159 160 155 158 161 153 144 133 127 120 122 124 128 125 123 118 114 107 102 99 90 81 78 74
116 152 220 115 104 146 121 107 139 106 110 68 64 65 139 156 155 151 152 153 159 164 168 164 162 176 174 166 162 169 167 156 145 135 130 133 120 133 133 130 122 113 105 101 97 91 89 82 80
194 213 278 3 124 109 114 111 153 132 207 187 173 154 154 158 152 155 162 165 169 176 177 179 169 174 187 186 175 174 173 167 156 142 153 153 157 134 130 132 129 122 114 108 95 89 96 90 81
245 234 231 218 192 102 142 135 104 180 224 175 160 158 159 173 162 168 168 181 178 178 183 182 179 180 186 189 189 187 176 170 169 161 164 183 170 160 149 152 145 135 127 115 117 95 91 83 57
243 281 342 169 140 112 116 148 186 235 233 123 139 155 166 174 185 182 185 200 194 192 186 185 181 179 184 192 186 190 193 188 182 183 186 186 181 177 179 178 159 153 154 142 132 115 103 95 43
262 214 138 200 165 89 120 223 155 270 155 131 144 158 170 177 182 186 194 198 200 199 196 189 187 183 189 188 198 197 200 205 201 197 192 184 188 185 184 185 182 177 171 185 172 159 119 93 318
212 220 184 209 183 203 155 287 217 232 138 155 154 160 172 188 192 202 195 193 197 201 201 199 193 188 192 195 200 203 206 201 204 212 200 193 200 191 189 185 183 179 202 202 179 158 124 51 351
132 40 149 220 161 246 152 246 261 236 172 178 176 168 178 187 201 211 211 187 193 197 200 201 197 195 193 195 202 206 208 207 203 206 205 203 201 198 197 195 192 190 214 190 181 186 181 93 304
293 169 184 211 194 164 184 237 255 254 183 194 191 181 185 189 199 212 216 211 197 199 200 200 202 201 198 201 208 213 212 211 212 205 210 208 203 202 202 198 199 210 213 194 197 204 206 257 269
176 174 232 208 219 190 200 242 274 292 180 199 207 194 191 188 200 206 216 217 195 199 201 203 204 202 201 203 208 217 211 215 216 210 215 216 208 204 205 206 205 205 208 209 210 208 201 230 223
162 196 204 232 231 162 223 217 237 262 215 233 232 215 195 200 201 200 208 218 200 204 201 204 203 207 203 199 201 209 212 213 217 214 216 218 214 213 211 210 211 212 216 217 219 219 207 197 203
219 199 221 269 153 173 237 245 234 239 234 209 217 227 198 204 191 197 201 203 200 205 202 207 208 209 208 205 206 210 213 215 220 218 219 220 219 219 219 215 215 213 216 220 224 223 216 192 207
231 236 204 206 203 315 357 277 232 240 222 221 221 217 214 189 198 200 193 197 203 206 202 205 210 212 210 209 209 212 219 221 222 222 221 220 221 224 227 221 221 222 225 227 227 226 223 206 200
206 194 191 148 148 223 185 277 287 236 242 233 229 213 216 212 198 199 195 197 201 210 210 209 208 211 214 212 208 206 208 208 216 219 220 219 221 225 228 226 228 229 229 234 231 235 230 216 213
208 145 124 107 111 17 243 249 264 244 250 240 231 224 217 212 204 194 198 202 207 208 212 212 211 211 212 213 210 211 212 217 216 216 221 220 221 225 230 230 231 233 233 235 237 238 234 225 223
151 95 60 56 88 243 207 199 240 219 239 240 222 229 220 212 212 214 203 207 204 206 208 213 213 213 214 214 214 216 215 215 213 216 221 224 227 229 232 233 234 235 235 235 236 238 244 237 231
145 158 146 209 216 239 220 201 245 234 231 209 218 231 220 216 214 217 201 196 197 198 206 209 213 212 214 215 216 215 219 218 220 219 220 219 226 231 233 232 233 236 237 237 237 236 232 235 234
180 173 152 179 205 222 304 229 251 225 239 225 228 239 197 195 219 224 219 201 199 203 204 205 209 215 215 218 220 220 221 220 222 227 222 224 230 236 238 236 234 237 238 237 238 234 235 233 231
178 197 144 105 40 98 210 276 307 261 231 215 216 202 224 237 215 204 228 219 214 211 210 211 213 219 218 221 222 221 223 221 224 224 227 231 238 239 239 238 238 238 239 238 233 230 232 230 230
183 161 167 117 154 237 253 248 227 219 238 224 223 215 266 191 96 72 57 118 208 224 223 221 224 223 225 223 222 223 225 227 226 229 229 229 234 236 235 237 241 243 243 239 234 231 228 226 224
164 192 188 130 162 177 178 253 218 204 211 200 158 139 133 113 110 92 50 28 263 240 234 233 231 233 234 233 232 231 231 232 232 229 232 233 233 236 235 240 244 242 241 239 229 231 227 220 217
194 190 189 188 210 214 179 271 291 210 156 136 144 138 141 140 144 152 204 326 315 298 278 261 252 251 247 246 242 239 241 241 238 237 235 234 236 240 243 245 245 243 242 240 230 227 222 220 214